A/2019 Q1

Japanese version
Home page
Updated on September 14, 2019

---------------------------------------------------------------------

* Profile

Discovery Date August 28, 2019
Magnitude 20.6 mag
Discoverer Mt. Lemmon Survey

* Orbital Elements

T 2020 July 24.81241 TT                                 Bell                    
q   4.9661345            (2000.0)            P               Q                  
                   Peri.   56.73936     +0.91880664     -0.28140969             
                   Node    42.33426     -0.31483659     -0.94543062             
e   1.0            Incl.  155.73396     +0.23805941     -0.16422400             
H   12.5                                                                        
From 69 observations 2019 Aug. 28-Sept. 8.                                      

* Magnitudes Graph

        H = 12.5  G = 0.15

---------------------------------------------------------------------

The orbital elements are published on M.P.E.C. 2019-R92.
The magnitudes graphs are made with Comet for Windows.

---------------------------------------------------------------------

Copyright(C) Seiichi Yoshida (comet@aerith.net). All rights reserved.